Location: Pagani
(40.7500°N, 14.6167°E)
Time: 21:42:02
(UTC+00:00)

Cosmos 2082 Rocket - Pass Details

Date: 15 May 2026
Orbit: 832 x 852 km, 71.0° (Epoch: 10 June)

Event Time Altitude Azimuth Distance (km) Brightness Sun altitude
Rises 18:52:16 0° 200° (SSW) 3,403 5.2 -7.5°
Reaches altitude 10° 18:54:42 10° 199° (SSW) 2,472 4.5 -7.9°
Maximum altitude 19:00:23 85° 112° (ESE) 861 2.2 -8.8°
Drops below altitude 10° 19:06:07 10° 25° (NNE) 2,485 4.8 -9.6°
Sets 19:08:34 0° 25° (NNE) 3,422 5.5 -10.0°
